Change the Weather History Date:

Saturday, June 29, 2013

  Actual Average Record
Temperature  
Mean Temperature 73 °F -  
Max Temperature 82 °F 78 °F 90 °F (2012)
Min Temperature 64 °F 54 °F 52 °F (1997)
Cooling Degree Days 8    
Growing Degree Days 23 (Base 50)    
Moisture  
Dew Point 63 °F    
Average Humidity 81    
Maximum Humidity 100    
Minimum Humidity 41    
Precipitation  
Precipitation 0.01 in - - ()
Sea Level Pressure  
Sea Level Pressure 29.56 in    
Wind  
Wind Speed 1 mph (SSW)    
Max Wind Speed 9 mph    
Max Gust Speed 20 mph    
Visibility 7 miles    
Events Fog    
Averages and records for this station are not official NWS values.
T = Trace of Precipitation, MM = Missing Value Source: NWS Daily Summary

Daily Weather History Graph

Daily Weather History Graph

Search for Another Location

Airport or City:

Trip Planner

Search our weather history database for the weather conditions in past years. The results will help you decide how hot, cold, wet, or windy it might be!

Date:

Astronomy

Jun. 29, 2013 Rise Set
Actual Time 5:17 AM EDT 8:34 PM EDT
Civil Twilight 4:42 AM EDT 9:09 PM EDT
Nautical Twilight 3:57 AM EDT 9:54 PM EDT
Astronomical Twilight 3:01 AM EDT 10:50 PM EDT
Moon No Moon Rise 12:36 PM EDT (6/29)
Length of Visible Light 16h 27m
Length of Day
15h 17m
Waning Gibbous, 56% of the Moon is Illuminated
Jun 29
Waning Gibbous
Jun 30
Last Quarter
Jul 8
New
Jul 15
First Quarter
Jul 22
Full

Hourly Weather History & Observations

Time (EDT) Temp. Heat Index Dew Point Humidity Pressure Visibility Wind Dir Wind Speed Gust Speed Precip Events Conditions
12:52 AM 66.9 °F - 64.9 °F 93% 29.50 in 10.0 mi Calm Calm - 0.01 in   Partly Cloudy
1:35 AM 66.2 °F - 64.4 °F 94% 29.50 in 9.0 mi Calm Calm - N/A   Scattered Clouds
1:52 AM 66.0 °F - 64.9 °F 96% 29.49 in 10.0 mi Calm Calm - N/A   Mostly Cloudy
2:26 AM 66.2 °F - 66.2 °F 100% 29.50 in 9.0 mi Calm Calm - N/A   Mostly Cloudy
2:52 AM 66.0 °F - 66.0 °F 100% 29.49 in 7.0 mi Calm Calm - N/A   Mostly Cloudy
3:19 AM 66.2 °F - 64.4 °F 94% 29.51 in 2.5 mi Calm Calm - N/A   Mostly Cloudy
3:35 AM 66.2 °F - 64.4 °F 94% 29.51 in 5.0 mi Calm Calm - N/A   Overcast
3:52 AM 66.0 °F - 66.0 °F 100% 29.50 in 3.0 mi Calm Calm - N/A   Overcast
4:05 AM 66.2 °F - 64.4 °F 94% 29.51 in 2.5 mi Calm Calm - N/A   Overcast
4:12 AM 66.2 °F - 64.4 °F 94% 29.51 in 6.0 mi Calm Calm - N/A   Overcast
4:52 AM 66.0 °F - 64.0 °F 93% 29.52 in 6.0 mi Calm Calm - N/A   Overcast
5:28 AM 64.4 °F - 64.4 °F 100% 29.55 in 1.8 mi Calm Calm - N/A   Overcast
5:32 AM 64.4 °F - 64.4 °F 100% 29.55 in 0.8 mi Calm Calm - N/A   Overcast
5:41 AM 64.4 °F - 64.4 °F 100% 29.55 in 0.2 mi Calm Calm - N/A Fog Fog
5:52 AM 64.9 °F - 64.0 °F 97% 29.54 in 0.2 mi Calm Calm - N/A Fog Fog
6:34 AM 64.4 °F - 64.4 °F 100% 29.56 in 1.0 mi Calm Calm - N/A   Mist
6:36 AM 64.4 °F - 64.4 °F 100% 29.56 in 2.5 mi Calm Calm - N/A   Overcast
6:43 AM 66.2 °F - 64.4 °F 94% 29.56 in 5.0 mi Calm Calm - N/A   Overcast
6:52 AM 66.0 °F - 64.0 °F 93% 29.55 in 1.8 mi Calm Calm - N/A   Overcast
7:02 AM 64.4 °F - 64.4 °F 100% 29.56 in 1.0 mi Calm Calm - N/A   Overcast
7:07 AM 66.2 °F - 64.4 °F 94% 29.56 in 2.0 mi Calm Calm - N/A   Overcast
7:15 AM 66.2 °F - 64.4 °F 94% 29.57 in 5.0 mi Calm Calm - N/A   Overcast
7:48 AM 66.2 °F - 64.4 °F 94% 29.57 in 7.0 mi Calm Calm - N/A   Mostly Cloudy
7:52 AM 66.9 °F - 64.9 °F 93% 29.56 in 7.0 mi Calm Calm - N/A   Mostly Cloudy
8:52 AM 70.0 °F - 62.1 °F 76% 29.57 in 10.0 mi Calm Calm - N/A   Scattered Clouds
9:02 AM 69.8 °F - 62.6 °F 78% 29.58 in 10.0 mi Calm Calm - N/A   Mostly Cloudy
9:19 AM 71.6 °F - 64.4 °F 78% 29.58 in 10.0 mi Calm Calm - N/A   Mostly Cloudy
9:52 AM 73.9 °F - 63.0 °F 68% 29.56 in 10.0 mi Calm Calm - N/A   Mostly Cloudy
10:22 AM 75.2 °F - 60.8 °F 61% 29.57 in 10.0 mi Calm Calm - N/A   Scattered Clouds
10:52 AM 75.0 °F - 61.0 °F 62% 29.56 in 10.0 mi East 3.5 mph - N/A   Scattered Clouds
11:52 AM 77.0 °F - 59.0 °F 54% 29.56 in 10.0 mi SW 5.8 mph - N/A   Partly Cloudy
12:52 PM 80.1 °F 80.7 °F 59.0 °F 48% 29.56 in 10.0 mi WSW 8.1 mph - N/A   Clear
1:52 PM 80.1 °F 80.4 °F 57.0 °F 45% 29.56 in 10.0 mi South 5.8 mph - N/A   Partly Cloudy
2:52 PM 81.0 °F 80.8 °F 55.9 °F 42% 29.56 in 10.0 mi SSW 9.2 mph 19.6 mph N/A   Partly Cloudy
3:52 PM 82.0 °F 81.6 °F 55.9 °F 41% 29.56 in 10.0 mi SSW 9.2 mph 18.4 mph N/A   Partly Cloudy
4:52 PM 81.0 °F 80.8 °F 55.9 °F 42% 29.58 in 10.0 mi SSW 8.1 mph 19.6 mph N/A   Scattered Clouds
5:52 PM 80.1 °F 80.2 °F 55.9 °F 43% 29.59 in 10.0 mi SW 9.2 mph - N/A   Scattered Clouds
6:52 PM 79.0 °F - 57.0 °F 47% 29.60 in 10.0 mi WSW 6.9 mph - N/A   Clear
7:52 PM 75.9 °F - 57.0 °F 52% 29.62 in 10.0 mi Calm Calm - N/A   Partly Cloudy
8:52 PM 69.1 °F - 60.1 °F 73% 29.65 in 10.0 mi Calm Calm - N/A   Clear
9:52 PM 69.1 °F - 64.0 °F 84% 29.67 in 10.0 mi Calm Calm - N/A   Overcast
10:52 PM 68.0 °F - 64.0 °F 87% 29.68 in 10.0 mi Calm Calm - N/A   Mostly Cloudy
11:52 PM 66.0 °F - 63.0 °F 90% 29.70 in 9.0 mi Calm Calm - N/A   Mostly Cloudy